Home > Weather > Wheaton > Past weeks

Flag for USA Weather for the Past 2 Weeks in Wheaton, Illinois, USA

Now
45 °F

Passing clouds.


Feels Like: 40 °F
Forecast: 42 / 48 °F
Wind: 9 mph from East

Location: Dupage Airport

Current Time: Apr 30, 2016 at 6:37:52 AM

Latest Report: Apr 30, 2016 at 5:52 AM


Visibility: 8 mi

Pressure: 30.06 "Hg

Humidity: 82%

Dew Point: 40 °F

Location of WheatonLocation

Historic Weather in Wheaton — Graph

°F

Wheaton Temperature Yesterday

Maximum temperature yesterday: 50 °F (at 4:52 PM)
Minimum temperature yesterday: 43 °F (at 12:52 AM)
Average temperature yesterday: 45 °F

High & Low Weather Summary for the Past Weeks

 TemperatureHumidityPressure
High82 °F (Apr 25, 2:52 PM)93% (Apr 21, 5:01 AM)30.40 "Hg (Apr 21, 5:01 AM)
Low34 °F (Apr 23, 5:52 AM)21% (Apr 18, 4:52 PM)29.57 "Hg (Apr 25, 6:52 PM)
Average56 °F64%30.03 "Hg
* Reported Apr 15 4:52 AM — Apr 30 4:52 AM, Wheaton, Weather by CustomWeather, © 2016

Note: Actual official high and low records may vary slightly from our data, if they occured in-between our weather recording intervals... More about our weather records

Advertising

Wheaton Weather History for the Previous 24 Hours

Scroll right to see more
 ConditionsComfort  
Time TempWeatherWind HumidityBarometerVisibility
4:52 AM
Sat, Apr 30
45 °FClear.8 mph80%30.05 "Hg10 mi
3:52 AM44 °FClear.9 mph79%30.06 "Hg10 mi
2:52 AM43 °FPassing clouds.8 mph79%30.07 "Hg10 mi
1:52 AM43 °FOvercast.8 mph76%30.07 "Hg10 mi
12:52 AM43 °FMostly cloudy.8 mph76%30.10 "Hg10 mi
11:52 PM
Fri, Apr 29
44 °FMostly cloudy.8 mph76%30.09 "Hg8 mi
10:52 PM44 °FOvercast.9 mph76%30.13 "Hg8 mi
9:52 PM44 °FOvercast.8 mph73%30.14 "Hg9 mi
8:52 PM45 °FOvercast.12 mph74%30.13 "Hg9 mi
7:52 PM47 °FOvercast.12 mph71%30.13 "Hg10 mi
6:52 PM48 °FOvercast.7 mph68%30.11 "Hg10 mi
5:52 PM49 °FOvercast.5 mph66%30.11 "Hg10 mi
4:52 PM50 °FOvercast.9 mph63%30.10 "Hg10 mi
3:52 PM48 °FOvercast.12 mph71%30.11 "Hg10 mi
2:52 PM47 °FOvercast.6 mph71%30.11 "Hg10 mi
1:52 PM46 °FOvercast.8 mph73%30.11 "Hg10 mi
12:52 PM46 °FOvercast.7 mph73%30.11 "Hg10 mi
11:52 AM47 °FOvercast.12 mph74%30.09 "Hg10 mi
10:52 AM45 °FOvercast.10 mph76%30.10 "Hg10 mi
9:52 AM44 °FOvercast.8 mph79%30.11 "Hg9 mi
8:52 AM43 °FLow clouds.15 mph86%30.06 "Hg8 mi
7:52 AM43 °FFog.10 mph86%30.08 "Hg6 mi
6:52 AM43 °FFog.8 mph86%30.09 "Hg6 mi
Weather by CustomWeather, © 2016

See weather overviewHow to use our weather pages